Theta_e
304 296 292 295 295 292 290 288 288 291 296 294 292 292 295 298 298 298 299 300 302 302 305 306 307 308 308 309 309 311 316 322 326 326 326 327 326 328 329 329 331 330 328 327
298 293 297 298 296 294 291 289 287 292 296 295 293 293 296 297 298 300 300 301 301 301 302 303 303 304 304 305 307 309 311 316 321 325 326 327 327 328 329 330 329 329 328 327
291 292 298 296 293 292 290 289 289 289 292 294 292 290 291 294 297 299 300 300 300 299 299 300 300 300 302 302 304 305 308 310 315 322 325 326 326 324 326 327 327 328 329 328
294 296 294 293 292 293 288 293 292 290 289 285 290 280 288 291 293 295 297 297 297 297 298 298 299 299 300 300 303 306 307 307 310 320 323 324 323 322 324 326 327 327 327 328
289 291 292 291 292 295 290 295 292 290 287 288 289 285 285 289 290 293 296 296 296 297 297 297 297 298 298 299 299 302 302 302 309 317 322 323 323 324 325 325 325 325 325 326
289 292 293 292 294 295 294 292 290 291 290 282 285 284 282 285 290 291 294 295 296 295 296 296 297 296 295 296 297 300 298 297 300 301 308 317 321 322 323 323 323 324 324 324
287 288 290 294 290 293 293 289 280 280 279 276 282 283 285 288 291 293 293 294 294 294 294 293 292 292 293 293 294 296 296 294 296 297 299 301 303 310 320 322 323 322 322 323
283 281 290 292 291 289 290 289 278 271 273 276 282 280 284 291 293 294 294 293 293 292 292 291 291 290 290 290 291 292 294 292 293 294 296 298 300 302 304 306 312 322 323 323
282 283 290 291 292 293 288 286 288 281 272 274 278 282 286 289 290 292 290 292 291 290 291 290 290 290 289 288 289 289 290 291 290 291 293 295 296 297 299 300 301 303 305 308
285 280 286 291 292 291 289 291 283 283 275 274 277 278 280 284 285 287 289 291 290 289 288 288 288 288 288 287 287 288 288 288 288 288 290 292 293 295 296 295 295 297 299 301
286 283 282 288 286 287 287 286 285 285 280 273 270 276 284 286 287 287 289 290 287 286 286 285 286 286 286 285 284 284 285 285 287 286 288 290 290 292 291 290 291 293 294 295
287 284 279 283 285 287 291 287 286 280 276 278 278 278 286 287 288 288 289 286 285 285 284 283 283 284 283 282 282 281 283 282 284 283 286 287 287 289 287 286 288 291 290 291
290 284 277 278 281 282 285 286 288 286 282 278 276 278 286 286 286 288 287 285 284 282 281 281 281 280 281 280 280 279 281 280 280 281 283 283 285 284 283 284 285 287 288 288
294 284 282 277 279 282 281 284 286 285 281 281 280 282 285 284 286 286 285 283 282 280 280 279 279 279 279 278 278 278 278 278 278 279 280 280 283 281 281 282 283 284 285 285
290 282 284 284 281 281 282 283 285 284 285 281 283 283 287 287 285 286 284 281 280 279 278 277 277 277 277 276 276 277 276 276 277 277 277 278 279 278 279 279 281 282 282 284
290 282 283 281 284 280 280 282 283 285 286 285 286 284 287 283 282 282 282 280 279 277 276 276 276 276 275 275 275 275 274 274 276 275 276 276 276 276 276 277 278 279 280 281
287 285 281 277 282 280 277 282 283 283 286 286 282 287 285 281 283 282 280 279 278 276 275 275 275 274 274 274 274 272 273 274 274 274 274 274 274 274 275 275 276 276 276 278
286 285 283 277 276 272 282 283 287 285 286 287 288 289 288 287 281 278 278 277 276 275 274 274 273 272 273 273 272 272 273 273 273 273 272 273 273 272 273 274 274 274 276 276
290 286 282 276 277 278 280 280 280 281 282 287 286 288 279 276 277 274 275 275 273 273 273 273 272 272 272 271 271 272 272 272 271 271 271 271 271 272 272 272 273 274 275 277
288 287 283 276 274 273 281 283 283 285 279 287 287 286 276 279 279 280 273 273 273 273 272 271 271 271 271 270 271 271 271 270 269 270 270 271 271 271 271 272 273 274 276 277
280 281 279 279 277 275 283 280 283 276 279 283 285 285 278 280 277 273 272 272 272 271 271 270 270 270 269 270 270 270 269 268 269 269 269 269 270 270 272 272 274 274 275 275
276 277 278 279 277 275 280 280 280 281 276 278 277 278 279 271 271 271 271 270 270 269 269 269 268 268 268 269 268 268 267 268 267 267 267 267 269 270 272 271 273 273 273 273
277 283 279 281 279 277 275 275 275 276 276 275 274 274 273 270 269 269 269 269 269 268 269 268 267 267 267 266 267 265 265 265 265 264 264 266 268 270 270 270 271 271 272 272
280 280 281 282 278 275 274 272 273 273 273 273 273 272 272 269 269 269 269 269 268 267 266 266 265 265 264 264 265 264 264 263 261 261 264 266 266 267 269 269 270 270 270 270
279 281 277 277 276 273 274 273 271 271 271 270 270 271 270 271 270 270 268 267 266 266 265 265 264 264 262 262 262 262 261 261 260 262 263 263 265 265 266 267 268 269 271 272
276 277 279 279 278 280 277 274 272 270 270 270 269 268 269 270 268 268 266 266 265 264 263 262 262 261 260 259 259 259 258 258 258 259 260 261 263 263 264 264 264 268 270 271
Wind_Speed
4 5 11 9 6 5 6 3 5 3 5 2 6 6 9 8 4 7 9 10 12 11 11 9 10 11 10 9 8 10 9 12 7 7 7 8 11 10 9 11 15 14 12 14
3 13 8 6 5 5 4 5 4 4 5 1 7 12 7 8 8 10 10 13 10 5 9 11 11 9 10 10 10 10 10 11 8 8 6 6 5 8 9 10 12 13 14 16
6 5 9 6 4 6 4 6 5 6 3 4 6 13 6 3 4 5 8 8 5 5 6 7 10 11 11 13 14 11 10 10 9 10 7 5 5 2 4 9 8 11 13 13
7 5 9 4 10 9 9 6 5 3 3 6 3 8 3 4 6 6 11 5 5 5 5 5 9 11 14 14 12 13 12 10 9 7 7 9 8 9 8 8 6 8 12 14
6 8 11 9 7 9 5 7 7 5 3 4 9 7 6 6 4 9 7 4 3 4 6 9 10 10 11 12 12 12 14 15 16 9 5 5 7 7 6 5 6 8 8 12
4 1 5 8 4 7 8 6 4 2 3 8 9 8 4 6 10 5 6 6 6 5 6 6 7 9 11 11 13 12 14 15 16 15 16 12 7 7 5 6 5 5 5 6
3 4 2 4 6 3 6 8 2 4 7 7 2 8 9 3 6 7 9 6 6 6 6 6 8 10 11 13 14 12 15 16 16 15 15 15 14 14 10 7 6 6 6 6
10 6 12 6 7 7 14 11 6 8 6 4 2 10 7 12 5 4 3 8 7 7 5 5 6 7 9 11 12 13 14 15 16 14 14 13 14 9 9 12 11 8 6 6
10 8 1 2 5 12 6 15 7 4 3 3 6 7 8 8 11 7 6 7 7 6 5 5 5 6 8 10 11 12 13 13 15 15 12 12 12 13 12 13 12 10 12 11
6 2 2 9 3 2 7 9 4 4 6 8 5 7 9 3 4 7 8 8 6 5 5 4 6 7 8 9 10 10 12 13 14 14 13 11 12 12 12 11 13 14 13 15
6 3 1 5 10 17 7 8 4 5 6 7 3 8 8 15 10 12 9 7 7 6 4 4 5 5 7 8 11 11 12 14 14 14 13 13 12 12 12 12 13 14 14 15
8 4 5 10 1 1 16 10 11 8 5 4 3 11 2 6 8 12 9 9 7 6 5 4 5 6 7 9 10 12 12 13 13 13 13 13 13 14 14 14 15 15 15 14
13 6 3 2 2 2 7 9 14 8 3 10 9 9 3 4 8 6 12 9 7 6 5 4 4 6 7 9 10 11 11 13 13 13 13 13 13 15 16 16 16 15 16 16
18 6 11 18 7 9 7 11 15 18 11 17 13 17 11 7 10 8 8 8 8 6 5 3 4 6 7 8 9 10 11 13 14 13 14 14 15 16 15 15 16 15 16 16
12 9 15 17 5 6 10 14 18 19 26 16 22 20 25 14 11 15 9 8 9 8 5 3 4 4 6 8 9 9 11 11 12 12 12 13 14 14 14 14 14 14 14 14
7 8 8 15 15 9 7 7 14 24 23 21 26 20 6 3 7 9 14 13 10 8 5 3 4 6 7 8 8 10 10 11 11 11 12 13 13 14 14 14 15 16 15 15
10 8 7 12 7 6 11 25 20 13 21 20 20 30 7 7 11 15 14 12 10 8 5 4 5 5 6 7 8 9 9 9 10 10 12 13 13 13 13 14 13 14 14 15
11 13 8 8 5 14 12 7 23 26 23 21 20 23 13 13 4 6 7 10 10 7 5 4 4 4 5 6 7 8 7 8 9 10 12 12 14 14 14 13 14 14 13 14
10 11 8 5 15 4 5 7 9 13 23 23 24 22 5 7 6 2 5 4 7 6 6 5 4 4 3 6 7 7 7 7 9 11 12 13 14 14 14 14 14 13 13 13
12 10 9 2 7 8 17 10 7 6 11 16 21 17 13 12 9 8 13 10 10 9 6 6 4 5 6 7 8 7 8 9 11 12 13 13 13 14 14 14 14 13 12 13
5 8 16 15 8 7 10 6 6 8 15 7 14 15 18 12 3 10 14 10 9 9 8 6 5 6 7 7 7 7 8 10 11 12 12 12 12 13 13 14 12 13 13 14
10 7 9 7 10 14 5 5 16 6 2 3 4 7 13 13 13 13 12 12 10 8 7 6 6 6 7 7 7 7 8 10 11 11 11 11 11 10 11 12 12 13 12 12
6 10 6 8 6 4 3 2 3 2 3 3 5 6 15 15 8 10 11 10 10 8 6 6 6 6 6 7 7 7 9 11 11 11 10 10 11 11 12 12 12 10 11 10
4 4 5 3 5 4 4 3 1 1 2 4 9 10 8 11 12 12 11 10 8 7 7 5 5 5 4 5 6 6 8 10 9 9 10 10 10 11 10 9 9 8 9 10
7 8 7 6 3 2 9 8 5 6 9 11 9 6 11 13 12 11 10 9 8 7 5 5 3 3 3 4 4 4 7 9 9 9 9 10 8 9 10 9 8 9 10 12
6 9 8 8 1 3 2 12 12 12 9 8 13 10 7 10 11 10 8 7 7 6 5 4 3 2 2 3 3 4 5 6 7 9 8 8 8 8 9 9 10 13 16 19
Wind_Direction
197 187 204 188 180 152 150 150 207 274 256 297 240 248 259 278 206 257 264 262 269 277 290 301 303 302 300 283 273 270 268 253 228 219 228 232 234 232 228 230 231 225 214 208
165 217 184 170 155 176 160 160 208 284 284 189 297 289 248 250 250 233 243 265 271 298 306 320 332 343 338 314 306 288 272 267 239 230 231 224 218 227 230 230 227 219 210 210
198 174 159 158 148 170 194 203 198 230 350 297 317 299 279 299 227 233 248 251 279 275 311 336 344 349 353 357 347 326 302 280 267 245 239 231 232 233 213 227 227 226 224 221
234 203 160 173 202 169 218 180 158 175 117 264 99 286 236 238 258 251 263 247 298 9 1 355 359 5 5 358 354 0 359 344 307 254 231 229 230 236 239 239 223 225 217 224
206 185 168 189 185 178 211 155 178 161 171 262 238 281 278 120 224 247 262 288 50 56 41 13 10 14 8 3 1 8 14 21 12 358 260 237 242 250 260 248 239 227 222 220
205 256 169 169 140 159 143 92 50 108 138 247 207 194 230 187 210 247 249 141 104 67 47 32 12 13 14 9 9 11 13 20 19 23 25 15 325 299 280 271 257 247 231 222
133 197 183 124 111 85 163 143 206 192 204 230 238 193 239 207 186 206 248 160 115 80 69 47 28 20 14 11 9 9 13 18 13 22 26 21 15 9 343 305 276 257 249 232
193 202 180 187 188 178 195 190 168 192 193 217 125 227 247 208 257 221 136 120 111 96 81 59 37 24 22 15 13 11 13 12 11 13 20 20 20 14 8 355 347 328 287 263
189 229 110 167 158 154 177 212 183 86 59 66 221 281 273 216 237 204 150 141 129 108 92 72 43 34 30 22 16 16 13 14 11 6 3 18 20 16 9 2 356 349 347 343
207 140 210 190 132 101 172 150 166 195 206 228 236 248 220 255 106 139 177 165 137 113 94 67 44 34 31 28 17 18 19 15 11 4 1 8 16 11 9 7 354 354 342 343
151 145 88 124 204 186 170 196 201 155 179 182 240 252 205 218 198 177 187 156 142 130 107 73 53 40 31 21 21 12 16 9 9 1 357 359 4 12 8 359 354 347 341 341
173 152 181 203 250 264 221 217 191 192 218 233 227 253 173 208 192 172 160 147 143 134 113 77 49 36 33 22 21 12 16 7 6 350 353 360 355 4 4 355 352 342 338 341
170 194 151 305 333 1 204 207 207 206 87 199 210 259 7 148 143 156 154 157 145 130 104 83 62 38 30 23 14 7 14 3 359 352 354 354 356 2 355 346 351 340 333 337
165 177 217 225 226 151 202 201 201 199 219 235 223 246 250 182 177 177 168 160 151 143 123 83 54 36 30 20 11 2 6 360 353 352 356 357 357 353 344 339 337 330 337 327
172 223 218 241 216 194 210 206 200 206 220 218 242 232 243 215 191 194 165 163 162 160 136 102 66 34 23 14 8 7 360 356 352 351 352 352 345 339 334 334 330 328 323 326
181 236 184 241 227 205 223 217 210 213 226 232 242 251 237 94 108 157 182 173 169 163 141 113 68 30 21 8 5 1 352 351 349 347 349 344 342 335 333 332 330 330 330 323
172 200 171 235 206 177 234 230 226 214 223 218 227 240 143 200 192 183 178 174 162 156 142 105 75 33 15 6 3 354 347 344 348 347 344 341 338 334 333 327 322 321 324 326
186 207 205 228 126 220 229 228 220 219 229 220 233 241 226 219 148 116 135 147 151 150 125 93 65 42 21 10 359 349 354 353 353 347 344 342 339 334 330 329 329 327 328 327
226 211 234 221 222 259 294 221 172 180 241 222 218 232 158 114 83 214 137 123 135 136 119 103 73 59 36 21 4 352 1 357 355 354 345 343 338 334 334 333 333 332 327 327
220 244 228 179 238 213 225 224 161 95 256 219 208 212 157 148 187 201 158 142 131 120 110 99 72 72 48 22 5 2 4 3 358 352 341 339 338 335 332 331 334 325 326 326
189 226 233 257 239 264 243 146 150 146 239 156 197 180 157 187 242 122 127 120 123 124 115 95 81 69 42 18 2 10 5 2 348 341 335 334 334 333 335 334 327 331 333 333
187 198 220 226 246 255 134 75 182 203 20 107 103 150 152 121 122 121 123 130 129 121 110 86 82 66 46 23 11 7 4 347 340 336 330 329 332 337 337 332 331 335 334 332
220 195 199 199 223 355 320 351 7 349 141 167 122 130 134 131 130 130 133 131 130 120 104 78 73 65 49 25 18 1 349 341 337 329 327 333 333 334 334 335 332 334 336 332
254 168 201 160 196 208 263 284 309 341 120 110 115 116 118 120 135 132 133 134 123 111 103 87 78 70 49 21 13 357 340 337 327 327 334 335 334 330 332 330 332 328 328 326
189 146 183 266 249 159 217 217 172 117 111 103 79 94 118 125 128 135 128 126 119 114 104 100 97 85 44 4 357 351 348 339 336 336 333 335 330 330 327 329 326 325 321 323
187 185 188 226 207 159 153 164 168 145 138 122 120 105 83 119 126 128 120 122 131 134 120 112 107 84 23 349 342 346 339 340 336 336 337 331 328 332 329 326 320 319 321 329